Location: Bothwell
(42.3833°S, 147.0000°E)
Time: 23:30:24
(UTC+11:00)

RS-44 - Pass Details

Date: 03 October 2022
Orbit: 1174 x 1510 km, 82.5° (Epoch: 28 November)

Event Time Altitude Azimuth Distance (km) Brightness Sun altitude
Exits shadow 21:37:03 21° 110° (ESE) 2,912 ? -24.6°
Drops below altitude 10° 21:42:20 10° 146° (SE) 3,700 ? -25.4°
Sets 21:46:08 0° 160° (SSE) 4,686 ? -26.0°
